Regional Weather Roundup
Issued by NWS

Home | Current Version | Previous Version | Text Only | Print | Product List | Glossary Off
Versions: 1 2 3 4 5 6 7 8 9 10 11 12 13 14 15 16 17 18 19 20 21 22 23 24 25 26 27 28 29 30 31 32 33 34 35 36 37 38 39 40 41 42 43 44 45 46 47 48 49 50

000
ASUS43 KBIS 170020
RWRND

NORTH DAKOTA REGIONAL WEATHER ROUNDUP
NATIONAL WEATHER SERVICE BISMARCK ND
700 PM CDT TUE SEP 16 2014

NOTE: "FAIR" INDICATES FEW OR NO CLOUDS BELOW 12,000 FEET WITH NO
SIGNIFICANT WEATHER AND/OR OBSTRUCTIONS TO VISIBILITY.


NDZ001>003-009>011-017-170100-
NORTHWEST NORTH DAKOTA

CITY           SKY/WX    TMP DP  RH WIND       PRES   REMARKS
WILLISTON      CLEAR     71  40  32 SW5       29.92S
6HR MIN TEMP:  69; 6HR MAX TEMP:  76;

MINOT          CLEAR     69  47  45 NW5       29.91S
MINOT AFB      CLEAR     70  46  42 E2        29.91S
$$

NDZ018>021-031>035-040>046-170100-
SOUTHWEST NORTH DAKOTA

CITY           SKY/WX    TMP DP  RH WIND       PRES   REMARKS
BISMARCK       CLEAR     72  45  37 CALM      29.92S
6HR MIN TEMP:  67; 6HR MAX TEMP:  77;

DICKINSON      CLEAR     70  47  43 NE5       29.92F
GARRISON         N/A     69  43  38 W3        29.92S
6HR MIN TEMP:  63; 6HR MAX TEMP:  72;

HETTINGER ARPT CLEAR     71  49  45 N7        29.93S
$$

NDZ004>008-012>016-024-026-027-054-170100-
NORTHEAST NORTH DAKOTA

CITY           SKY/WX    TMP DP  RH WIND       PRES   REMARKS
GRAND FORKS    PTCLDY    67  48  50 S6        29.92S
GRND FRKS AFB  CLEAR     67  46  45 S6        29.93S
DEVILS LAKE    CLEAR     66  46  48 S7        29.91S
$$

NDZ022-023-025-028>030-036>039-047>053-170100-
SOUTHEAST NORTH DAKOTA

CITY           SKY/WX    TMP DP  RH WIND       PRES   REMARKS
FARGO          CLEAR     67  45  45 SE5       29.94F
6HR MIN TEMP:  67; 6HR MAX TEMP:  72;

JAMESTOWN      CLEAR     68  47  46 CALM      29.93F
$$



USA.gov is the U.S. government's official web portal to all federal, state and local government web resources and services.